Voltar ao catálogo

STARLINK-5606

AtivoComunicaçõesVLEO
NORAD 55767·PAYLOAD·🇺🇸 United States

Lançado Mar 3, 2023 de Vandenberg Space Force Base

Loading…

Próximas Passagens (próximas 24 horas)

TLE

AtualizadoSource: CelesTrak SupGP

Época: Sep 14, 2026, 21:53 UTC

1 55767C 23028AC  26257.91229167  .00015053  00000+0  12616-2 0  2572
2 55767  69.9999 107.5447 0002622 271.5303  39.7234 14.98318551    18

Acompanhe STARLINK-5606 em tempo real com AllMySat

Download on the App Store